Showing default

LONGJIANG 3, 56874

Orbit data source: Space-Track

LONGJIANG 3, 56874 is a payload satellite owned by Harbin (CN) in LEO that was launched on Fri, 09 Jun 2023 UTC via a KUAIZHOU-1A launch vehicle from the Jiuquan Satellite Launch Center, China (JSC). Payload-class satellites include a variety of spacecraft equipped with specific instruments for various scientific and technological missions. These include communications satellites like Starlink; space stations such as the ISS; scientific satellites like the Hubble; Earth observation satellites from companies like Planet Labs, Umbra, and HawkEye 360; GPS; miniature CubeSats for education and research; and military/defense satellites.

Loading next visibility...
Identifier
56874, 2023-082A
Orbit
LEO
Last TLE update
4 hours ago
Origin
Manufacturer
HITSAT
Mission
Operational Amateur Communications
Bus & Motor
SATWARE-CS200, Unknown motor
Mass
~120 kg wet, ~120 kg dry
Launch date (UTC)
2023-06-09 (2 years ago)
Launch vehicle
KUAIZHOU-1A
Launch site
Jiuquan Satellite Launch Center, China (JSC)
Object type
Payload
Rocket body
Debris
Shape & HBR
Box, 1.5 m
Radar Cross Section
2.000 m², Medium (>0.1 m² and < 1m²)

Expand to show TLE details & history

TLE from 4 hours ago
0 LONGJIANG 3
1 56874U 23082A   25190.19372784  .00009211  00000-0  34948-3 0  9997
2 56874  49.1130 356.0866 0008713 305.8676  54.1458 15.27430122116695
Epoch: 2025-07-09T04:38Z
TLE epoch observation values (Epoch: 2025-07-09T04:38:58.085Z)
Latitude
-0.00006°
Longitude
-1.03334°
Altitude
480.457 km
Speed
7.629 km/s
True Right ascension
23h 44m 20s
True Declination
0° 00' 00"
Sunlit
Object was in daylight at epoch
Visualization orbit readout
Latitude
43.22452°
Longitude
124.17444°
Altitude
493.202 km
Speed
7.621 km/s
Apparent Right ascension
08h 16m 03s
Apparent Declination
3° 32' 26"
Sunlit
Object is in daylight
Visualization observer readout
Local Sidereal Time
20:27:11
Azimuth
4.036° NNE
Elevation
-46.468°
Doppler factor
1
Orbital elements
Apogee altitude
490.397 km
Perigee altitude
478.439 km
Semi-major axis
6,862.555 km
Eccentricity
0.00087
Inclination
49.113°
RAAN
356.0866°
Arg. of periapsis
305.8676°
True anomaly
Unknown
Mean anomaly
54.1458°
Eccentric anomaly
Unknown
Mean motion
3.81781 °/min
Orbital period
94.29 mins
BSTAR
0.00034948
Loading maneuver chart data...
Loading SW <> Apogee altitude chart data...
Loading historical data...
Loading historical data...
Loading historical data...
Loading historical data...
Loading historical data...
Loading historical data...
Loading historical data...
Other satellites on launch #82 in the year 2023 (2023-06-09 UTC)

LONGJIANG 3 Visibility forecast

Observer location: undefined°, undefined°

Span
Click to sort rows by Start time (UTC) header in descending order
Start Az.
Max El. time (UTC)
Max El. Az.
Max El.
End time (UTC)
End Az.
6 mins2025-07-09 14:15:33.191Z228.719° WSW2025-07-09 14:18:33.191Z183.84° SSW42.976°2025-07-09 14:21:33.191Z62.287° ENE
5 mins2025-07-09 15:55:33.191Z295.902° NW2025-07-09 15:57:33.191Z343.066° N25.049°2025-07-09 16:00:33.191Z41.508° NE
4 mins2025-07-09 17:35:33.191Z335.482° NNW2025-07-09 17:36:33.191Z356.201° N18.736°2025-07-09 17:39:33.191Z50.689° ENE
6 mins2025-07-09 19:13:33.191Z321.288° NNW2025-07-09 19:15:33.191Z3.184° NNE30.02°2025-07-09 19:19:33.191Z91.805° ESE
5 mins2025-07-09 20:52:33.191Z278.067° WNW2025-07-09 20:54:33.191Z218.803° SW33.44°2025-07-09 20:57:33.191Z151.686° SSE
|